User: anonymous   Login
Location: B�hl
(48.6968°N, 8.1352°E)
Time: 14:37:08
(UTC+00:00)
Language:

Meteor 2-9 Rocket - Orbit

View from above orbital plane
View from above orbital plane
View from above satellite
View from above satellite

Ground track
Ground track

The orbit data is extracted from the following two-line orbital elements,

1 13719U 82116B   21126.90101068  .00000092  00000-0  40533-4 0  9996
2 13719  81.2573  49.5199 0070325 262.8969 163.9479 14.14670422981092
Epoch (UTC): 06 May 2021 21:37:27
Eccentricity: 0.0070325
inclination: 81.2573°
perigee height: 792 km
apogee height: 894 km
right ascension of ascending node: 49.5199°
argument of perigee: 262.8969°
revolutions per day: 14.14670422
mean anomaly at epoch: 163.9479°
orbit number at epoch: 98109

The dashed part of the orbit path shows where the satellite is in the earth's shadow,  

DLR